Regional Weather Roundup
Issued by NWS

Home | Current Version | Previous Version | Text Only | Print | Product List | Glossary Off
Versions: 1 2 3 4 5 6 7 8 9 10 11 12 13 14 15 16 17 18 19 20 21 22 23 24 25 26 27 28 29 30 31 32 33 34 35 36 37 38 39 40 41 42 43 44 45 46 47 48 49 50

000
ASUS43 KFSD 291302
RWRSD

WEATHER ROUNDUP FOR SOUTH DAKOTA
NATIONAL WEATHER SERVICE SIOUX FALLS SD
700 AM CST THU JAN 29 2015

NOTE: "FAIR" INDICATES FEW OR NO CLOUDS BELOW 12,000 FEET WITH NO
SIGNIFICANT WEATHER AND/OR OBSTRUCTIONS TO VISIBILITY.


SDZ001>005-009-010-012>017-291400-
NORTHWEST AND NORTH CENTRAL SOUTH DAKOTA

CITY           SKY/WX    TMP DP  RH WIND       PRES   REMARKS
BUFFALO          N/A     24  21  88 NW15      30.34R WCI  11
FAITH            N/A     27  21  78 NW9       30.40R WCI  18
MOBRIDGE       CLOUDY    30  21  69 NW25G31   30.34R WCI  16
$$

SDZ012>016-024>037-041>051-057-063-072>074-291400-
SOUTHWEST AND SOUTH CENTRAL SOUTH DAKOTA

CITY           SKY/WX    TMP DP  RH WIND       PRES   REMARKS
RAPID CTY ARPT CLEAR     25  22  88 W6        30.43R WCI  18
PIERRE         CLOUDY    35  26  69 NW15      30.37R WCI  25
CUSTER         CLEAR     27  -8  21 NE10      30.34R WCI  17
ELLSWORTH AFB  CLEAR     28  24  82 N10       30.42R WCI  19
PHILIP         CLOUDY    35  21  56 NW17      30.42R WCI  25
PINE RIDGE     CLEAR     21  18  88 CALM      30.43R
WINNER         CLOUDY    36  25  64 NW18      30.37R
$$

SDZ004>011-016>023-039-040-291400-
NORTHEAST SOUTH DAKOTA

CITY           SKY/WX    TMP DP  RH WIND       PRES   REMARKS
ABERDEEN       CLOUDY    32  25  75 N22       30.34R WCI  19
WATERTOWN      CLOUDY    27  22  81 N21G28    30.26R WCI  13
SISSETON         N/A     27  23  85 N15       30.28R WCI  15
$$

SDZ017-020-022-023-036>040-048>070-291400-
SOUTHEAST SOUTH DAKOTA

CITY           SKY/WX    TMP DP  RH WIND       PRES   REMARKS
SIOUX FALLS    CLOUDY    31  24  75 N22G30    30.26R WCI  18
HURON          CLOUDY    32  26  78 N17       30.33R WCI  21
MITCHELL       CLOUDY    33  28  81 N15       30.34R WCI  23
YANKTON        CLOUDY    34  27  75 NW21G28   30.30R WCI  22
$$

ABBREVIATIONS USED IN REMARKS
   TC - TEMPERATURE IN CELSIUS
  WCI - WIND CHILL INDEX
   HX - HEAT INDEX
  VSB - VISIBILITY



USA.gov is the U.S. government's official web portal to all federal, state and local government web resources and services.